owner,sensor,date,latitude,longitude,mass_concentration_of_chlorophyll_in_sea_water,qcFlag 
SCCF RECON,ioos:station:SCCF:11:1,2019-06-01T04:00:00Z,26.4679,-82.0631,2.77,11111222 
SCCF RECON,ioos:station:SCCF:11:1,2019-06-01T05:00:00Z,26.4679,-82.0631,2.25,11111222 
SCCF RECON,ioos:station:SCCF:11:1,2019-06-01T06:00:00Z,26.4679,-82.0631,1.97,11113222 
SCCF RECON,ioos:station:SCCF:11:1,2019-06-01T07:00:00Z,26.4679,-82.0631,2.16,11111222 
SCCF RECON,ioos:station:SCCF:11:1,2019-06-01T08:00:00Z,26.4679,-82.0631,2.36,11111222 
SCCF RECON,ioos:station:SCCF:11:1,2019-06-01T09:00:00Z,26.4679,-82.0631,2.5,11111222 
SCCF RECON,ioos:station:SCCF:11:1,2019-06-01T10:00:00Z,26.4679,-82.0631,2.4,11111222 
SCCF RECON,ioos:station:SCCF:11:1,2019-06-01T11:00:00Z,26.4679,-82.0631,4.71,11111222 
SCCF RECON,ioos:station:SCCF:11:1,2019-06-01T12:00:00Z,26.4679,-82.0631,2.84,11111222 
SCCF RECON,ioos:station:SCCF:11:1,2019-06-01T13:00:00Z,26.4679,-82.0631,2.36,11111222 
SCCF RECON,ioos:station:SCCF:11:1,2019-06-01T14:00:00Z,26.4679,-82.0631,2.48,11111222 
SCCF RECON,ioos:station:SCCF:11:1,2019-06-01T15:00:00Z,26.4679,-82.0631,1.74,11113222 
SCCF RECON,ioos:station:SCCF:11:1,2019-06-01T16:00:00Z,26.4679,-82.0631,1.57,11113222 
SCCF RECON,ioos:station:SCCF:11:1,2019-06-01T17:00:00Z,26.4679,-82.0631,2.86,11111222 
SCCF RECON,ioos:station:SCCF:11:1,2019-06-01T18:00:00Z,26.4679,-82.0631,2.2,11111222 
SCCF RECON,ioos:station:SCCF:11:1,2019-06-01T19:00:00Z,26.4679,-82.0631,2.88,11111222 
SCCF RECON,ioos:station:SCCF:11:1,2019-06-01T20:00:00Z,26.4679,-82.0631,3.67,11111222 
SCCF RECON,ioos:station:SCCF:11:1,2019-06-01T21:00:00Z,26.4679,-82.0631,4.17,11111222 
SCCF RECON,ioos:station:SCCF:11:1,2019-06-01T22:00:00Z,26.4679,-82.0631,4.56,11111222 
SCCF RECON,ioos:station:SCCF:11:1,2019-06-01T23:00:00Z,26.4679,-82.0631,4.79,11111222 
SCCF RECON,ioos:station:SCCF:11:1,2019-06-02T04:00:00Z,26.4679,-82.0631,3.34,11111222 
SCCF RECON,ioos:station:SCCF:11:1,2019-06-02T05:00:00Z,26.4679,-82.0631,3.09,11111222 
SCCF RECON,ioos:station:SCCF:11:1,2019-06-02T06:00:00Z,26.4679,-82.0631,2.83,11111222 
SCCF RECON,ioos:station:SCCF:11:1,2019-06-02T07:00:00Z,26.4679,-82.0631,2.58,11111222 
SCCF RECON,ioos:station:SCCF:11:1,2019-06-02T08:00:00Z,26.4679,-82.0631,2.72,11111222 
SCCF RECON,ioos:station:SCCF:11:1,2019-06-02T09:00:00Z,26.4679,-82.0631,3.24,11111222 
SCCF RECON,ioos:station:SCCF:11:1,2019-06-02T10:00:00Z,26.4679,-82.0631,3.32,11111222 
SCCF RECON,ioos:station:SCCF:11:1,2019-06-02T11:00:00Z,26.4679,-82.0631,3.63,11111222 
SCCF RECON,ioos:station:SCCF:11:1,2019-06-02T12:00:00Z,26.4679,-82.0631,3.55,11111222 
SCCF RECON,ioos:station:SCCF:11:1,2019-06-02T13:00:00Z,26.4679,-82.0631,3.85,11111222 
SCCF RECON,ioos:station:SCCF:11:1,2019-06-02T14:00:00Z,26.4679,-82.0631,2.47,11111222 
SCCF RECON,ioos:station:SCCF:11:1,2019-06-02T15:00:00Z,26.4679,-82.0631,2.26,11111222 
SCCF RECON,ioos:station:SCCF:11:1,2019-06-02T16:00:00Z,26.4679,-82.0631,1.76,11113222 
SCCF RECON,ioos:station:SCCF:11:1,2019-06-02T17:00:00Z,26.4679,-82.0631,1.98,11113222 
SCCF RECON,ioos:station:SCCF:11:1,2019-06-02T18:00:00Z,26.4679,-82.0631,2.17,11111222 
SCCF RECON,ioos:station:SCCF:11:1,2019-06-02T19:00:00Z,26.4679,-82.0631,3.12,11111222 
SCCF RECON,ioos:station:SCCF:11:1,2019-06-02T20:00:00Z,26.4679,-82.0631,4.44,11111222 
SCCF RECON,ioos:station:SCCF:11:1,2019-06-02T21:00:00Z,26.4679,-82.0631,5.14,11111222 
SCCF RECON,ioos:station:SCCF:11:1,2019-06-02T22:00:00Z,26.4679,-82.0631,5.47,11111222 
SCCF RECON,ioos:station:SCCF:11:1,2019-06-02T23:00:00Z,26.4679,-82.0631,5.76,11111222 
SCCF RECON,ioos:station:SCCF:11:1,2019-06-03T04:00:00Z,26.4679,-82.0631,4.51,11111222 
SCCF RECON,ioos:station:SCCF:11:1,2019-06-03T05:00:00Z,26.4679,-82.0631,4.08,11111222 
SCCF RECON,ioos:station:SCCF:11:1,2019-06-03T06:00:00Z,26.4679,-82.0631,3.48,11111222 
SCCF RECON,ioos:station:SCCF:11:1,2019-06-03T07:00:00Z,26.4679,-82.0631,4.14,11111222 
SCCF RECON,ioos:station:SCCF:11:1,2019-06-03T08:00:00Z,26.4679,-82.0631,3.33,11111222 
SCCF RECON,ioos:station:SCCF:11:1,2019-06-03T09:00:00Z,26.4679,-82.0631,3.53,11111222 
SCCF RECON,ioos:station:SCCF:11:1,2019-06-03T10:00:00Z,26.4679,-82.0631,4.17,11111222 
SCCF RECON,ioos:station:SCCF:11:1,2019-06-03T11:00:00Z,26.4679,-82.0631,5.25,11111222 
SCCF RECON,ioos:station:SCCF:11:1,2019-06-03T12:00:00Z,26.4679,-82.0631,5.01,11111222 
SCCF RECON,ioos:station:SCCF:11:1,2019-06-03T13:00:00Z,26.4679,-82.0631,4.44,11111222 
SCCF RECON,ioos:station:SCCF:11:1,2019-06-03T14:00:00Z,26.4679,-82.0631,3.8,11111222 
SCCF RECON,ioos:station:SCCF:11:1,2019-06-03T15:00:00Z,26.4679,-82.0631,3.1,11111222 
SCCF RECON,ioos:station:SCCF:11:1,2019-06-03T16:00:00Z,26.4679,-82.0631,3.37,11111222 
SCCF RECON,ioos:station:SCCF:11:1,2019-06-03T17:00:00Z,26.4679,-82.0631,2.86,11111222 
SCCF RECON,ioos:station:SCCF:11:1,2019-06-03T18:00:00Z,26.4679,-82.0631,3.14,11111222 
SCCF RECON,ioos:station:SCCF:11:1,2019-06-03T19:00:00Z,26.4679,-82.0631,4.25,11111222 
SCCF RECON,ioos:station:SCCF:11:1,2019-06-03T20:00:00Z,26.4679,-82.0631,5.54,11111222 
SCCF RECON,ioos:station:SCCF:11:1,2019-06-03T21:00:00Z,26.4679,-82.0631,6.1,11111222 
SCCF RECON,ioos:station:SCCF:11:1,2019-06-03T22:00:00Z,26.4679,-82.0631,6.57,11111222 
SCCF RECON,ioos:station:SCCF:11:1,2019-06-03T23:00:00Z,26.4679,-82.0631,6.75,11111222 
SCCF RECON,ioos:station:SCCF:11:1,2019-06-04T04:00:00Z,26.4679,-82.0631,3.84,11111222 
SCCF RECON,ioos:station:SCCF:11:1,2019-06-04T05:00:00Z,26.4679,-82.0631,4.33,11111222 
SCCF RECON,ioos:station:SCCF:11:1,2019-06-04T06:00:00Z,26.4679,-82.0631,3.65,11111222 
SCCF RECON,ioos:station:SCCF:11:1,2019-06-04T07:00:00Z,26.4679,-82.0631,3.45,11111222 
SCCF RECON,ioos:station:SCCF:11:1,2019-06-04T08:00:00Z,26.4679,-82.0631,3.4,11111222 
SCCF RECON,ioos:station:SCCF:11:1,2019-06-04T09:00:00Z,26.4679,-82.0631,3.19,11111222 
SCCF RECON,ioos:station:SCCF:11:1,2019-06-04T10:00:00Z,26.4679,-82.0631,3.57,11111222 
SCCF RECON,ioos:station:SCCF:11:1,2019-06-04T11:00:00Z,26.4679,-82.0631,5.14,11111222 
SCCF RECON,ioos:station:SCCF:11:1,2019-06-04T12:00:00Z,26.4679,-82.0631,5.05,11111222 
SCCF RECON,ioos:station:SCCF:11:1,2019-06-04T13:00:00Z,26.4679,-82.0631,5.16,11111222 
SCCF RECON,ioos:station:SCCF:11:1,2019-06-04T14:00:00Z,26.4679,-82.0631,3.46,11111222 
SCCF RECON,ioos:station:SCCF:11:1,2019-06-04T15:00:00Z,26.4679,-82.0631,5.19,11111222 
SCCF RECON,ioos:station:SCCF:11:1,2019-06-04T16:00:00Z,26.4679,-82.0631,4.21,11111222 
SCCF RECON,ioos:station:SCCF:11:1,2019-06-04T17:00:00Z,26.4679,-82.0631,3.06,11111222 
SCCF RECON,ioos:station:SCCF:11:1,2019-06-04T18:00:00Z,26.4679,-82.0631,3.86,11111222 
SCCF RECON,ioos:station:SCCF:11:1,2019-06-04T19:00:00Z,26.4679,-82.0631,3.47,11111222 
SCCF RECON,ioos:station:SCCF:11:1,2019-06-04T20:00:00Z,26.4679,-82.0631,4.23,11111222 
SCCF RECON,ioos:station:SCCF:11:1,2019-06-04T21:00:00Z,26.4679,-82.0631,5.54,11111222 
SCCF RECON,ioos:station:SCCF:11:1,2019-06-04T22:00:00Z,26.4679,-82.0631,5.99,11111222 
SCCF RECON,ioos:station:SCCF:11:1,2019-06-04T23:00:00Z,26.4679,-82.0631,6.3,11111222 
SCCF RECON,ioos:station:SCCF:11:1,2019-06-05T04:00:00Z,26.4679,-82.0631,4.64,11111222 
SCCF RECON,ioos:station:SCCF:11:1,2019-06-05T05:00:00Z,26.4679,-82.0631,4.12,11111222 
SCCF RECON,ioos:station:SCCF:11:1,2019-06-05T06:00:00Z,26.4679,-82.0631,4.03,11111222 
SCCF RECON,ioos:station:SCCF:11:1,2019-06-05T07:00:00Z,26.4679,-82.0631,3.79,11111222 
SCCF RECON,ioos:station:SCCF:11:1,2019-06-05T08:00:00Z,26.4679,-82.0631,3.43,11111222 
SCCF RECON,ioos:station:SCCF:11:1,2019-06-05T09:00:00Z,26.4679,-82.0631,3.01,11111222 
SCCF RECON,ioos:station:SCCF:11:1,2019-06-05T10:00:00Z,26.4679,-82.0631,3.42,11111222 
SCCF RECON,ioos:station:SCCF:11:1,2019-06-05T11:00:00Z,26.4679,-82.0631,4.55,11111222 
SCCF RECON,ioos:station:SCCF:11:1,2019-06-05T12:00:00Z,26.4679,-82.0631,4.67,11111222 
SCCF RECON,ioos:station:SCCF:11:1,2019-06-05T13:00:00Z,26.4679,-82.0631,4.76,11111222 
SCCF RECON,ioos:station:SCCF:11:1,2019-06-05T14:00:00Z,26.4679,-82.0631,4.15,11111222 
SCCF RECON,ioos:station:SCCF:11:1,2019-06-05T15:00:00Z,26.4679,-82.0631,2.96,11111222 
SCCF RECON,ioos:station:SCCF:11:1,2019-06-05T16:00:00Z,26.4679,-82.0631,2.53,11111222 
SCCF RECON,ioos:station:SCCF:11:1,2019-06-05T17:00:00Z,26.4679,-82.0631,2.72,11111222 
SCCF RECON,ioos:station:SCCF:11:1,2019-06-05T18:00:00Z,26.4679,-82.0631,2.46,11111222 
SCCF RECON,ioos:station:SCCF:11:1,2019-06-05T19:00:00Z,26.4679,-82.0631,2.09,11111222 
SCCF RECON,ioos:station:SCCF:11:1,2019-06-05T20:00:00Z,26.4679,-82.0631,3.65,11111222 
SCCF RECON,ioos:station:SCCF:11:1,2019-06-05T21:00:00Z,26.4679,-82.0631,4.03,11111222 
SCCF RECON,ioos:station:SCCF:11:1,2019-06-05T22:00:00Z,26.4679,-82.0631,5.18,11111222 
SCCF RECON,ioos:station:SCCF:11:1,2019-06-05T23:00:00Z,26.4679,-82.0631,5.3,11111222 
SCCF RECON,ioos:station:SCCF:11:1,2019-06-06T04:00:00Z,26.4679,-82.0631,4.61,11111222 
SCCF RECON,ioos:station:SCCF:11:1,2019-06-06T05:00:00Z,26.4679,-82.0631,4.05,11111222 
SCCF RECON,ioos:station:SCCF:11:1,2019-06-06T06:00:00Z,26.4679,-82.0631,3.59,11111222 
SCCF RECON,ioos:station:SCCF:11:1,2019-06-06T07:00:00Z,26.4679,-82.0631,3.95,11111222 
SCCF RECON,ioos:station:SCCF:11:1,2019-06-06T08:00:00Z,26.4679,-82.0631,3.74,11111222 
SCCF RECON,ioos:station:SCCF:11:1,2019-06-06T09:00:00Z,26.4679,-82.0631,3.01,11111222 
SCCF RECON,ioos:station:SCCF:11:1,2019-06-06T10:00:00Z,26.4679,-82.0631,2.24,11111222 
SCCF RECON,ioos:station:SCCF:11:1,2019-06-06T11:00:00Z,26.4679,-82.0631,3.42,11111222 
SCCF RECON,ioos:station:SCCF:11:1,2019-06-06T12:00:00Z,26.4679,-82.0631,3.0,11111222 
SCCF RECON,ioos:station:SCCF:11:1,2019-06-06T13:00:00Z,26.4679,-82.0631,3.85,11111222 
SCCF RECON,ioos:station:SCCF:11:1,2019-06-06T14:00:00Z,26.4679,-82.0631,3.95,11111222 
SCCF RECON,ioos:station:SCCF:11:1,2019-06-06T15:00:00Z,26.4679,-82.0631,2.15,11111222 
SCCF RECON,ioos:station:SCCF:11:1,2019-06-06T16:00:00Z,26.4679,-82.0631,2.06,11111222 
SCCF RECON,ioos:station:SCCF:11:1,2019-06-06T17:00:00Z,26.4679,-82.0631,1.88,11113222 
SCCF RECON,ioos:station:SCCF:11:1,2019-06-06T18:00:00Z,26.4679,-82.0631,1.72,11113222 
SCCF RECON,ioos:station:SCCF:11:1,2019-06-06T19:00:00Z,26.4679,-82.0631,1.65,11113222 
SCCF RECON,ioos:station:SCCF:11:1,2019-06-06T20:00:00Z,26.4679,-82.0631,1.83,11113222 
SCCF RECON,ioos:station:SCCF:11:1,2019-06-06T21:00:00Z,26.4679,-82.0631,3.43,11111222 
SCCF RECON,ioos:station:SCCF:11:1,2019-06-06T22:00:00Z,26.4679,-82.0631,3.94,11111222 
SCCF RECON,ioos:station:SCCF:11:1,2019-06-06T23:00:00Z,26.4679,-82.0631,4.75,11111222 
SCCF RECON,ioos:station:SCCF:11:1,2019-06-07T04:00:00Z,26.4679,-82.0631,4.03,11111222 
SCCF RECON,ioos:station:SCCF:11:1,2019-06-07T05:00:00Z,26.4679,-82.0631,3.93,11111222 
SCCF RECON,ioos:station:SCCF:11:1,2019-06-07T06:00:00Z,26.4679,-82.0631,3.85,11111222 
SCCF RECON,ioos:station:SCCF:11:1,2019-06-07T07:00:00Z,26.4679,-82.0631,3.54,11111222 
SCCF RECON,ioos:station:SCCF:11:1,2019-06-07T08:00:00Z,26.4679,-82.0631,3.48,11111222 
SCCF RECON,ioos:station:SCCF:11:1,2019-06-07T09:00:00Z,26.4679,-82.0631,2.87,11111222 
SCCF RECON,ioos:station:SCCF:11:1,2019-06-07T10:00:00Z,26.4679,-82.0631,2.07,11111222 
SCCF RECON,ioos:station:SCCF:11:1,2019-06-07T11:00:00Z,26.4679,-82.0631,2.08,11111222 
SCCF RECON,ioos:station:SCCF:11:1,2019-06-07T12:00:00Z,26.4679,-82.0631,2.89,11111222 
SCCF RECON,ioos:station:SCCF:11:1,2019-06-07T13:00:00Z,26.4679,-82.0631,2.78,11111222 
SCCF RECON,ioos:station:SCCF:11:1,2019-06-07T14:00:00Z,26.4679,-82.0631,2.77,11111222 
SCCF RECON,ioos:station:SCCF:11:1,2019-06-07T15:00:00Z,26.4679,-82.0631,3.08,11111222 
SCCF RECON,ioos:station:SCCF:11:1,2019-06-07T16:00:00Z,26.4679,-82.0631,2.85,11111222 
SCCF RECON,ioos:station:SCCF:11:1,2019-06-07T17:00:00Z,26.4679,-82.0631,2.36,11111222 
SCCF RECON,ioos:station:SCCF:11:1,2019-06-07T18:00:00Z,26.4679,-82.0631,2.52,11111222 
SCCF RECON,ioos:station:SCCF:11:1,2019-06-07T19:00:00Z,26.4679,-82.0631,1.96,11113222 
SCCF RECON,ioos:station:SCCF:11:1,2019-06-07T20:00:00Z,26.4679,-82.0631,2.13,11111222 
SCCF RECON,ioos:station:SCCF:11:1,2019-06-07T21:00:00Z,26.4679,-82.0631,2.57,11111222 
SCCF RECON,ioos:station:SCCF:11:1,2019-06-07T22:00:00Z,26.4679,-82.0631,3.16,11111222 
SCCF RECON,ioos:station:SCCF:11:1,2019-06-07T23:00:00Z,26.4679,-82.0631,4.45,11111222 
SCCF RECON,ioos:station:SCCF:11:1,2019-06-08T04:00:00Z,26.4679,-82.0631,3.99,11111222 
SCCF RECON,ioos:station:SCCF:11:1,2019-06-08T05:00:00Z,26.4679,-82.0631,3.72,11111222 
SCCF RECON,ioos:station:SCCF:11:1,2019-06-08T06:00:00Z,26.4679,-82.0631,3.86,11111222 
SCCF RECON,ioos:station:SCCF:11:1,2019-06-08T07:00:00Z,26.4679,-82.0631,3.72,11111222 
SCCF RECON,ioos:station:SCCF:11:1,2019-06-08T08:00:00Z,26.4679,-82.0631,3.56,11111222 
SCCF RECON,ioos:station:SCCF:11:1,2019-06-08T09:00:00Z,26.4679,-82.0631,3.33,11111222 
SCCF RECON,ioos:station:SCCF:11:1,2019-06-08T10:00:00Z,26.4679,-82.0631,2.99,11111222 
SCCF RECON,ioos:station:SCCF:11:1,2019-06-08T11:00:00Z,26.4679,-82.0631,3.33,11111222 
SCCF RECON,ioos:station:SCCF:11:1,2019-06-08T12:00:00Z,26.4679,-82.0631,1.91,11113222 
SCCF RECON,ioos:station:SCCF:11:1,2019-06-08T13:00:00Z,26.4679,-82.0631,2.4,11111222 
SCCF RECON,ioos:station:SCCF:11:1,2019-06-08T14:00:00Z,26.4679,-82.0631,2.5,11111222 
SCCF RECON,ioos:station:SCCF:11:1,2019-06-08T15:00:00Z,26.4679,-82.0631,2.5,11111222 
SCCF RECON,ioos:station:SCCF:11:1,2019-06-08T16:00:00Z,26.4679,-82.0631,2.96,11111222 
SCCF RECON,ioos:station:SCCF:11:1,2019-06-08T17:00:00Z,26.4679,-82.0631,3.49,11111222 
SCCF RECON,ioos:station:SCCF:11:1,2019-06-08T18:00:00Z,26.4679,-82.0631,3.17,11111222 
SCCF RECON,ioos:station:SCCF:11:1,2019-06-08T19:00:00Z,26.4679,-82.0631,2.46,11111222 
SCCF RECON,ioos:station:SCCF:11:1,2019-06-09T04:00:00Z,26.4679,-82.0631,3.46,11111222 
SCCF RECON,ioos:station:SCCF:11:1,2019-06-09T05:00:00Z,26.4679,-82.0631,3.28,11111222 
SCCF RECON,ioos:station:SCCF:11:1,2019-06-09T06:00:00Z,26.4679,-82.0631,2.97,11111222 
SCCF RECON,ioos:station:SCCF:11:1,2019-06-09T07:00:00Z,26.4679,-82.0631,3.12,11111222 
SCCF RECON,ioos:station:SCCF:11:1,2019-06-09T08:00:00Z,26.4679,-82.0631,3.04,11111222 
SCCF RECON,ioos:station:SCCF:11:1,2019-06-09T09:00:00Z,26.4679,-82.0631,3.03,11111222 
SCCF RECON,ioos:station:SCCF:11:1,2019-06-09T10:00:00Z,26.4679,-82.0631,2.86,11111222 
SCCF RECON,ioos:station:SCCF:11:1,2019-06-09T11:00:00Z,26.4679,-82.0631,2.18,11111222 
SCCF RECON,ioos:station:SCCF:11:1,2019-06-09T12:00:00Z,26.4679,-82.0631,2.2,11111222 
SCCF RECON,ioos:station:SCCF:11:1,2019-06-09T13:00:00Z,26.4679,-82.0631,1.66,11113222 
SCCF RECON,ioos:station:SCCF:11:1,2019-06-09T14:00:00Z,26.4679,-82.0631,1.91,11113222 
SCCF RECON,ioos:station:SCCF:11:1,2019-06-09T15:00:00Z,26.4679,-82.0631,2.37,11111222 
SCCF RECON,ioos:station:SCCF:11:1,2019-06-09T16:00:00Z,26.4679,-82.0631,2.51,11111222 
SCCF RECON,ioos:station:SCCF:11:1,2019-06-09T17:00:00Z,26.4679,-82.0631,2.92,11111222 
SCCF RECON,ioos:station:SCCF:11:1,2019-06-09T18:00:00Z,26.4679,-82.0631,2.79,11111222 
SCCF RECON,ioos:station:SCCF:11:1,2019-06-09T19:00:00Z,26.4679,-82.0631,3.08,11111222 
SCCF RECON,ioos:station:SCCF:11:1,2019-06-09T20:00:00Z,26.4679,-82.0631,2.15,11111222 
SCCF RECON,ioos:station:SCCF:11:1,2019-06-09T21:00:00Z,26.4679,-82.0631,2.53,11111222 
SCCF RECON,ioos:station:SCCF:11:1,2019-06-09T22:00:00Z,26.4679,-82.0631,2.38,11111222 
SCCF RECON,ioos:station:SCCF:11:1,2019-06-09T23:00:00Z,26.4679,-82.0631,2.33,11111222 
SCCF RECON,ioos:station:SCCF:11:1,2019-06-10T04:00:00Z,26.4679,-82.0631,3.31,11111222 
SCCF RECON,ioos:station:SCCF:11:1,2019-06-10T05:00:00Z,26.4679,-82.0631,3.08,11111222 
SCCF RECON,ioos:station:SCCF:11:1,2019-06-10T06:00:00Z,26.4679,-82.0631,2.74,11111222 
SCCF RECON,ioos:station:SCCF:11:1,2019-06-10T07:00:00Z,26.4679,-82.0631,2.69,11111222 
SCCF RECON,ioos:station:SCCF:11:1,2019-06-10T08:00:00Z,26.4679,-82.0631,3.25,11111222 
SCCF RECON,ioos:station:SCCF:11:1,2019-06-10T09:00:00Z,26.4679,-82.0631,2.97,11111222 
SCCF RECON,ioos:station:SCCF:11:1,2019-06-10T10:00:00Z,26.4679,-82.0631,2.91,11111222 
SCCF RECON,ioos:station:SCCF:11:1,2019-06-10T11:00:00Z,26.4679,-82.0631,3.09,11111222 
SCCF RECON,ioos:station:SCCF:11:1,2019-06-10T12:00:00Z,26.4679,-82.0631,1.85,11113222 
SCCF RECON,ioos:station:SCCF:11:1,2019-06-10T13:00:00Z,26.4679,-82.0631,1.82,11113222 
SCCF RECON,ioos:station:SCCF:11:1,2019-06-10T14:00:00Z,26.4679,-82.0631,1.65,11113222 
SCCF RECON,ioos:station:SCCF:11:1,2019-06-10T15:00:00Z,26.4679,-82.0631,2.44,11111222 
SCCF RECON,ioos:station:SCCF:11:1,2019-06-10T16:00:00Z,26.4679,-82.0631,2.91,11111222 
SCCF RECON,ioos:station:SCCF:11:1,2019-06-10T17:00:00Z,26.4679,-82.0631,3.2,11111222 
SCCF RECON,ioos:station:SCCF:11:1,2019-06-10T18:00:00Z,26.4679,-82.0631,3.46,11111222 
SCCF RECON,ioos:station:SCCF:11:1,2019-06-10T19:00:00Z,26.4679,-82.0631,3.59,11111222 
SCCF RECON,ioos:station:SCCF:11:1,2019-06-10T20:00:00Z,26.4679,-82.0631,3.49,11111222 
SCCF RECON,ioos:station:SCCF:11:1,2019-06-10T21:00:00Z,26.4679,-82.0631,3.18,11111222 
SCCF RECON,ioos:station:SCCF:11:1,2019-06-10T22:00:00Z,26.4679,-82.0631,3.01,11111222 
SCCF RECON,ioos:station:SCCF:11:1,2019-06-10T23:00:00Z,26.4679,-82.0631,3.17,11111222 
SCCF RECON,ioos:station:SCCF:11:1,2019-06-11T04:00:00Z,26.4679,-82.0631,3.27,11111222 
SCCF RECON,ioos:station:SCCF:11:1,2019-06-11T05:00:00Z,26.4679,-82.0631,3.25,11111222 
SCCF RECON,ioos:station:SCCF:11:1,2019-06-11T06:00:00Z,26.4679,-82.0631,3.2,11111222 
SCCF RECON,ioos:station:SCCF:11:1,2019-06-11T07:00:00Z,26.4679,-82.0631,3.2,11111222 
SCCF RECON,ioos:station:SCCF:11:1,2019-06-11T08:00:00Z,26.4679,-82.0631,2.86,11111222 
SCCF RECON,ioos:station:SCCF:11:1,2019-06-11T09:00:00Z,26.4679,-82.0631,2.66,11111222 
SCCF RECON,ioos:station:SCCF:11:1,2019-06-11T10:00:00Z,26.4679,-82.0631,2.54,11111222 
SCCF RECON,ioos:station:SCCF:11:1,2019-06-11T11:00:00Z,26.4679,-82.0631,2.74,11111222 
SCCF RECON,ioos:station:SCCF:11:1,2019-06-11T12:00:00Z,26.4679,-82.0631,1.8,11113222 
SCCF RECON,ioos:station:SCCF:11:1,2019-06-11T13:00:00Z,26.4679,-82.0631,1.66,11113222 
SCCF RECON,ioos:station:SCCF:11:1,2019-06-11T14:00:00Z,26.4679,-82.0631,1.65,11113222 
SCCF RECON,ioos:station:SCCF:11:1,2019-06-11T15:00:00Z,26.4679,-82.0631,1.93,11113222 
SCCF RECON,ioos:station:SCCF:11:1,2019-06-11T16:00:00Z,26.4679,-82.0631,2.41,11111222 
SCCF RECON,ioos:station:SCCF:11:1,2019-06-11T17:00:00Z,26.4679,-82.0631,2.93,11111222 
SCCF RECON,ioos:station:SCCF:11:1,2019-06-11T18:00:00Z,26.4679,-82.0631,3.28,11111222 
SCCF RECON,ioos:station:SCCF:11:1,2019-06-11T21:00:00Z,26.4679,-82.0631,3.99,11111222 
SCCF RECON,ioos:station:SCCF:11:1,2019-06-11T22:00:00Z,26.4679,-82.0631,4.29,11111222 
SCCF RECON,ioos:station:SCCF:11:1,2019-06-11T23:00:00Z,26.4679,-82.0631,3.97,11111222 
SCCF RECON,ioos:station:SCCF:11:1,2019-06-12T04:00:00Z,26.4679,-82.0631,2.69,11111222 
SCCF RECON,ioos:station:SCCF:11:1,2019-06-12T05:00:00Z,26.4679,-82.0631,2.66,11111222 
SCCF RECON,ioos:station:SCCF:11:1,2019-06-12T06:00:00Z,26.4679,-82.0631,2.82,11111222 
SCCF RECON,ioos:station:SCCF:11:1,2019-06-12T07:00:00Z,26.4679,-82.0631,2.72,11111222 
SCCF RECON,ioos:station:SCCF:11:1,2019-06-12T08:00:00Z,26.4679,-82.0631,2.99,11111222 
SCCF RECON,ioos:station:SCCF:11:1,2019-06-12T09:00:00Z,26.4679,-82.0631,2.31,11111222 
SCCF RECON,ioos:station:SCCF:11:1,2019-06-12T10:00:00Z,26.4679,-82.0631,2.1,11111222 
SCCF RECON,ioos:station:SCCF:11:1,2019-06-12T11:00:00Z,26.4679,-82.0631,2.25,11111222 
SCCF RECON,ioos:station:SCCF:11:1,2019-06-12T12:00:00Z,26.4679,-82.0631,2.06,11111222 
SCCF RECON,ioos:station:SCCF:11:1,2019-06-12T13:00:00Z,26.4679,-82.0631,1.72,11113222 
SCCF RECON,ioos:station:SCCF:11:1,2019-06-12T14:00:00Z,26.4679,-82.0631,1.73,11113222 
SCCF RECON,ioos:station:SCCF:11:1,2019-06-12T15:00:00Z,26.4679,-82.0631,2.23,11111222 
SCCF RECON,ioos:station:SCCF:11:1,2019-06-12T16:00:00Z,26.4679,-82.0631,2.26,11111222 
SCCF RECON,ioos:station:SCCF:11:1,2019-06-12T17:00:00Z,26.4679,-82.0631,2.42,11111222 
SCCF RECON,ioos:station:SCCF:11:1,2019-06-12T18:00:00Z,26.4679,-82.0631,2.78,11111222 
SCCF RECON,ioos:station:SCCF:11:1,2019-06-12T19:00:00Z,26.4679,-82.0631,2.99,11111222 
SCCF RECON,ioos:station:SCCF:11:1,2019-06-12T20:00:00Z,26.4679,-82.0631,3.18,11111222 
SCCF RECON,ioos:station:SCCF:11:1,2019-06-12T21:00:00Z,26.4679,-82.0631,3.4,11111222 
SCCF RECON,ioos:station:SCCF:11:1,2019-06-12T22:00:00Z,26.4679,-82.0631,3.53,11111222 
SCCF RECON,ioos:station:SCCF:11:1,2019-06-12T23:00:00Z,26.4679,-82.0631,3.45,11111222 
SCCF RECON,ioos:station:SCCF:11:1,2019-06-13T04:00:00Z,26.4679,-82.0631,2.24,11111222 
SCCF RECON,ioos:station:SCCF:11:1,2019-06-13T05:00:00Z,26.4679,-82.0631,2.48,11111222 
SCCF RECON,ioos:station:SCCF:11:1,2019-06-13T06:00:00Z,26.4679,-82.0631,2.63,11111222 
SCCF RECON,ioos:station:SCCF:11:1,2019-06-13T07:00:00Z,26.4679,-82.0631,2.55,11111222 
SCCF RECON,ioos:station:SCCF:11:1,2019-06-13T08:00:00Z,26.4679,-82.0631,2.37,11111222 
SCCF RECON,ioos:station:SCCF:11:1,2019-06-13T09:00:00Z,26.4679,-82.0631,2.25,11111222 
SCCF RECON,ioos:station:SCCF:11:1,2019-06-13T10:00:00Z,26.4679,-82.0631,2.04,11111222 
SCCF RECON,ioos:station:SCCF:11:1,2019-06-13T11:00:00Z,26.4679,-82.0631,2.33,11111222 
SCCF RECON,ioos:station:SCCF:11:1,2019-06-13T12:00:00Z,26.4679,-82.0631,2.32,11111222 
SCCF RECON,ioos:station:SCCF:11:1,2019-06-13T13:00:00Z,26.4679,-82.0631,2.16,11111222 
SCCF RECON,ioos:station:SCCF:11:1,2019-06-13T14:00:00Z,26.4679,-82.0631,1.77,11113222 
SCCF RECON,ioos:station:SCCF:11:1,2019-06-13T15:00:00Z,26.4679,-82.0631,1.54,11113222 
SCCF RECON,ioos:station:SCCF:11:1,2019-06-13T16:00:00Z,26.4679,-82.0631,1.79,11113222 
SCCF RECON,ioos:station:SCCF:11:1,2019-06-13T17:00:00Z,26.4679,-82.0631,2.39,11111222 
SCCF RECON,ioos:station:SCCF:11:1,2019-06-13T18:00:00Z,26.4679,-82.0631,2.78,11111222 
SCCF RECON,ioos:station:SCCF:11:1,2019-06-13T19:00:00Z,26.4679,-82.0631,3.05,11111222 
SCCF RECON,ioos:station:SCCF:11:1,2019-06-13T20:00:00Z,26.4679,-82.0631,3.37,11111222 
SCCF RECON,ioos:station:SCCF:11:1,2019-06-13T21:00:00Z,26.4679,-82.0631,3.55,11111222 
SCCF RECON,ioos:station:SCCF:11:1,2019-06-13T22:00:00Z,26.4679,-82.0631,3.83,11111222 
SCCF RECON,ioos:station:SCCF:11:1,2019-06-13T23:00:00Z,26.4679,-82.0631,4.12,11111222 
SCCF RECON,ioos:station:SCCF:11:1,2019-06-14T04:00:00Z,26.4679,-82.0631,3.41,11111222 
SCCF RECON,ioos:station:SCCF:11:1,2019-06-14T05:00:00Z,26.4679,-82.0631,3.31,11111222 
SCCF RECON,ioos:station:SCCF:11:1,2019-06-14T06:00:00Z,26.4679,-82.0631,3.3,11111222 
SCCF RECON,ioos:station:SCCF:11:1,2019-06-14T07:00:00Z,26.4679,-82.0631,2.95,11111222 
SCCF RECON,ioos:station:SCCF:11:1,2019-06-14T08:00:00Z,26.4679,-82.0631,2.94,11111222 
SCCF RECON,ioos:station:SCCF:11:1,2019-06-14T09:00:00Z,26.4679,-82.0631,2.9,11111222 
SCCF RECON,ioos:station:SCCF:11:1,2019-06-14T10:00:00Z,26.4679,-82.0631,2.86,11111222 
SCCF RECON,ioos:station:SCCF:11:1,2019-06-14T11:00:00Z,26.4679,-82.0631,3.33,11111222 
SCCF RECON,ioos:station:SCCF:11:1,2019-06-14T12:00:00Z,26.4679,-82.0631,2.84,11111222 
SCCF RECON,ioos:station:SCCF:11:1,2019-06-14T13:00:00Z,26.4679,-82.0631,2.46,11111222 
SCCF RECON,ioos:station:SCCF:11:1,2019-06-14T14:00:00Z,26.4679,-82.0631,2.18,11111222 
SCCF RECON,ioos:station:SCCF:11:1,2019-06-14T15:00:00Z,26.4679,-82.0631,2.3,11111222 
SCCF RECON,ioos:station:SCCF:11:1,2019-06-14T16:00:00Z,26.4679,-82.0631,2.47,11111222 
SCCF RECON,ioos:station:SCCF:11:1,2019-06-14T17:00:00Z,26.4679,-82.0631,1.86,11113222 
SCCF RECON,ioos:station:SCCF:11:1,2019-06-14T18:00:00Z,26.4679,-82.0631,2.78,11111222 
SCCF RECON,ioos:station:SCCF:11:1,2019-06-14T19:00:00Z,26.4679,-82.0631,3.24,11111222 
SCCF RECON,ioos:station:SCCF:11:1,2019-06-14T20:00:00Z,26.4679,-82.0631,3.57,11111222 
SCCF RECON,ioos:station:SCCF:11:1,2019-06-14T21:00:00Z,26.4679,-82.0631,3.73,11111222 
SCCF RECON,ioos:station:SCCF:11:1,2019-06-14T22:00:00Z,26.4679,-82.0631,4.01,11111222 
SCCF RECON,ioos:station:SCCF:11:1,2019-06-14T23:00:00Z,26.4679,-82.0631,4.06,11111222 
SCCF RECON,ioos:station:SCCF:11:1,2019-06-15T04:00:00Z,26.4679,-82.0631,3.01,11111222 